| time (UTC) | temp C | wind direction | speed KPH | gust KPH | rain 1hr cm | rain 24hr cm | rain mn cm | humidity % | barometer mb |
| 20260831114532 | 17 | 46 | 0.0 | 0.0 | 0.00 | 0.03 | 0.00 | 94 | 1019.3 |
| 20260831113026 | 17 | 44 | 0.0 | 0.0 | 0.00 | 0.03 | 0.00 | 94 | 1019.1 |
| 20260831111525 | 17 | 44 | 0.0 | 0.0 | 0.00 | 0.03 | 0.00 | 94 | 1019.1 |
| 20260831110023 | 17 | 44 | 0.0 | 0.0 | 0.00 | 0.03 | 0.00 | 93 | 1018.9 |
| 20260831104535 | 17 | 44 | 0.0 | 0.0 | 0.00 | 0.03 | 0.00 | 93 | 1018.8 |
| 20260831103021 | 17 | 44 | 0.0 | 0.0 | 0.00 | 0.03 | 0.00 | 93 | 1018.5 |
| 20260831101524 | 17 | 44 | 0.0 | 0.0 | 0.00 | 0.03 | 0.00 | 93 | 1018.5 |
| 20260831100026 | 17 | 44 | 0.0 | 0.0 | 0.00 | 0.03 | 0.00 | 93 | 1018.3 |
| 20260831094520 | 17 | 44 | 0.0 | 0.0 | 0.00 | 0.03 | 0.00 | 93 | 1018.6 |
| 20260831093019 | 17 | 44 | 0.0 | 0.0 | 0.00 | 0.03 | 0.00 | 93 | 1018.6 |
| 20260831091522 | 17 | 44 | 0.0 | 0.0 | 0.00 | 0.03 | 0.00 | 93 | 1018.6 |
| 20260831090018 | 17 | 44 | 0.0 | 0.0 | 0.00 | 0.03 | 0.00 | 93 | 1018.4 |
| 20260831084517 | 17 | 44 | 0.0 | 0.0 | 0.00 | 0.03 | 0.00 | 93 | 1018.4 |
| 20260831083016 | 17 | 44 | 0.0 | 0.0 | 0.00 | 0.03 | 0.00 | 93 | 1018.2 |
| 20260831081530 | 17 | 44 | 0.0 | 0.0 | 0.00 | 0.03 | 0.00 | 93 | 1018.5 |
| 20260831080013 | 17 | 44 | 0.0 | 0.0 | 0.00 | 0.03 | 0.00 | 93 | 1018.4 |
| 20260831074517 | 17 | 44 | 0.0 | 0.0 | 0.00 | 0.03 | 0.00 | 93 | 1018.5 |
| 20260831073011 | 17 | 44 | 0.0 | 0.0 | 0.00 | 0.03 | 0.00 | 93 | 1018.5 |
| 20260831071510 | 17 | 44 | 0.0 | 0.0 | 0.00 | 0.03 | 0.00 | 93 | 1018.6 |
| 20260831070020 | 17 | 44 | 0.0 | 0.0 | 0.00 | 0.03 | 0.00 | 93 | 1018.6 |
| 20260831064509 | 17 | 44 | 0.0 | 0.0 | 0.00 | 0.03 | 0.00 | 93 | 1018.5 |
| 20260831063007 | 17 | 44 | 0.0 | 0.0 | 0.00 | 0.03 | 0.00 | 93 | 1018.6 |
| 20260831061507 | 17 | 44 | 0.0 | 0.0 | 0.00 | 0.03 | 0.00 | 93 | 1018.8 |
| 20260831060006 | 17 | 44 | 0.0 | 0.0 | 0.00 | 0.03 | 0.00 | 93 | 1018.6 |
| 20260831054504 | 17 | 44 | 0.0 | 0.0 | 0.00 | 0.03 | 0.00 | 93 | 1018.7 |
| 20260831053004 | 17 | 44 | 0.0 | 0.0 | 0.00 | 0.03 | 0.00 | 93 | 1018.7 |
| 20260831051502 | 17 | 44 | 0.0 | 0.0 | 0.00 | 0.03 | 0.00 | 93 | 1018.8 |
| 20260831050002 | 17 | 44 | 0.0 | 0.0 | 0.00 | 0.03 | 0.00 | 92 | 1018.9 |
| 20260831044604 | 17 | 44 | 0.0 | 0.0 | 0.00 | 0.03 | 0.00 | 92 | 1019.1 |
| 20260831043059 | 18 | 44 | 0.0 | 0.0 | 0.00 | 0.03 | 0.00 | 93 | 1019.0 |
| 20260831041557 | 18 | 44 | 0.0 | 0.0 | 0.00 | 0.03 | 0.00 | 92 | 1018.9 |
| 20260831040056 | 18 | 44 | 0.0 | 0.0 | 0.00 | 0.03 | 0.00 | 92 | 1018.9 |
| 20260831034554 | 18 | 44 | 0.0 | 0.0 | 0.00 | 0.03 | 0.03 | 92 | 1019.1 |
| 20260831033101 | 18 | 44 | 0.0 | 0.0 | 0.00 | 0.03 | 0.03 | 92 | 1019.1 |
| 20260831031553 | 18 | 44 | 0.0 | 0.0 | 0.00 | 0.03 | 0.03 | 92 | 1019.1 |
| 20260831030053 | 18 | 44 | 0.0 | 0.0 | 0.00 | 0.03 | 0.03 | 92 | 1019.2 |
| 20260831024604 | 18 | 44 | 0.0 | 0.0 | 0.00 | 0.03 | 0.03 | 92 | 1019.2 |
| 20260831023051 | 18 | 44 | 0.0 | 0.0 | 0.00 | 0.03 | 0.03 | 92 | 1019.2 |
| 20260831021558 | 18 | 44 | 0.0 | 0.0 | 0.00 | 0.03 | 0.03 | 92 | 1019.2 |
| 20260831020053 | 18 | 44 | 0.0 | 0.0 | 0.00 | 0.03 | 0.03 | 91 | 1019.3 |
| 20260831014550 | 19 | 44 | 0.0 | 0.0 | 0.00 | 0.03 | 0.03 | 91 | 1019.3 |
| 20260831013050 | 19 | 44 | 0.0 | 0.0 | 0.00 | 0.03 | 0.03 | 91 | 1019.3 |
| 20260831011551 | 19 | 44 | 0.0 | 0.0 | 0.00 | 0.03 | 0.03 | 90 | 1019.2 |
| 20260831010121 | 20 | 44 | 0.0 | 0.0 | 0.00 | 0.03 | 0.03 | 90 | 1019.1 |
| 20260831004551 | 20 | 44 | 0.0 | 0.0 | 0.03 | 0.03 | 0.03 | 89 | 1018.7 |
| 20260831003047 | 20 | 44 | 0.0 | 0.0 | 0.03 | 0.03 | 0.03 | 89 | 1018.5 |
| 20260831001558 | 20 | 44 | 0.0 | 0.0 | 0.03 | 0.03 | 0.03 | 88 | 1018.6 |
| 20260831000047 | 20 | 44 | 0.0 | 1.6 | 0.03 | 0.03 | 0.03 | 86 | 1018.5 |
| 20260830234546 | 21 | 44 | 0.0 | 1.6 | 0.00 | 0.00 | 0.00 | 84 | 1018.3 |
| 20260830233046 | 21 | 44 | 0.0 | 1.6 | 0.00 | 0.00 | 0.00 | 82 | 1018.0 |
| 20260830231546 | 21 | 44 | 0.0 | 1.6 | 0.00 | 0.00 | 0.00 | 82 | 1017.9 |
| 20260830230050 | 21 | 159 | 0.0 | 3.2 | 0.00 | 0.00 | 0.00 | 81 | 1017.8 |
| 20260830224551 | 21 | 159 | 0.0 | 1.6 | 0.00 | 0.00 | 0.00 | 80 | 1018.0 |
| 20260830223044 | 22 | 159 | 0.0 | 3.2 | 0.00 | 0.00 | 0.00 | 80 | 1018.0 |
| 20260830221544 | 22 | 159 | 0.0 | 1.6 | 0.00 | 0.00 | 0.00 | 80 | 1018.1 |
| 20260830220047 | 22 | 159 | 0.0 | 1.6 | 0.00 | 0.00 | 0.00 | 80 | 1018.1 |
| 20260830214544 | 22 | 159 | 0.0 | 1.6 | 0.00 | 0.00 | 0.00 | 79 | 1017.9 |
| 20260830213040 | 22 | 159 | 0.0 | 0.0 | 0.00 | 0.00 | 0.00 | 79 | 1017.9 |
| 20260830211540 | 22 | 159 | 0.0 | 3.2 | 0.00 | 0.00 | 0.00 | 78 | 1017.7 |
| 20260830210039 | 22 | 161 | 0.0 | 1.6 | 0.00 | 0.00 | 0.00 | 78 | 1017.8 |
| 20260830204539 | 23 | 161 | 0.0 | 3.2 | 0.00 | 0.00 | 0.00 | 76 | 1017.9 |
| 20260830203037 | 23 | 136 | 0.0 | 3.2 | 0.00 | 0.00 | 0.00 | 76 | 1017.8 |
| 20260830201535 | 23 | 132 | 0.0 | 4.8 | 0.00 | 0.00 | 0.00 | 74 | 1018.0 |
| 20260830200034 | 23 | 246 | 0.0 | 4.8 | 0.00 | 0.00 | 0.00 | 73 | 1018.1 |
| 20260830194535 | 23 | 323 | 0.0 | 4.8 | 0.00 | 0.00 | 0.00 | 72 | 1018.2 |
| 20260830193031 | 24 | 199 | 0.0 | 4.8 | 0.00 | 0.00 | 0.00 | 72 | 1018.2 |
| 20260830191530 | 24 | 140 | 1.6 | 8.0 | 0.00 | 0.00 | 0.00 | 70 | 1018.2 |
| 20260830190031 | 24 | 302 | 3.2 | 12.9 | 0.00 | 0.00 | 0.00 | 70 | 1018.4 |
| 20260830184527 | 24 | 144 | 1.6 | 6.4 | 0.00 | 0.00 | 0.00 | 72 | 1018.6 |
| 20260830183025 | 24 | 5 | 0.0 | 6.4 | 0.00 | 0.00 | 0.00 | 73 | 1018.7 |
| 20260830181535 | 25 | 151 | 3.2 | 8.0 | 0.00 | 0.00 | 0.00 | 71 | 1019.0 |
| 20260830180036 | 24 | 207 | 1.6 | 6.4 | 0.00 | 0.00 | 0.00 | 74 | 1018.8 |
| 20260830174526 | 24 | 205 | 1.6 | 6.4 | 0.00 | 0.00 | 0.00 | 74 | 1019.1 |
| 20260830173025 | 23 | 217 | 1.6 | 6.4 | 0.00 | 0.00 | 0.00 | 77 | 1019.0 |
| 20260830171518 | 22 | 231 | 0.0 | 6.4 | 0.00 | 0.00 | 0.00 | 80 | 1019.4 |
| 20260830170012 | 22 | 164 | 1.6 | 4.8 | 0.00 | 0.00 | 0.00 | 80 | 1019.6 |
| 20260830164509 | 22 | 360 | 0.0 | 3.2 | 0.00 | 0.00 | 0.00 | 82 | 1019.6 |
| 20260830163007 | 21 | 202 | 0.0 | 4.8 | 0.00 | 0.00 | 0.00 | 84 | 1019.7 |
| 20260830161505 | 20 | 172 | 1.6 | 4.8 | 0.00 | 0.00 | 0.00 | 84 | 1019.8 |
| 20260830160004 | 20 | 126 | 4.8 | 8.0 | 0.00 | 0.00 | 0.00 | 83 | 1020.0 |
| 20260830154502 | 20 | 138 | 3.2 | 11.3 | 0.00 | 0.00 | 0.00 | 83 | 1020.1 |
| 20260830153059 | 20 | 142 | 1.6 | 11.3 | 0.00 | 0.00 | 0.00 | 84 | 1020.1 |
| 20260830151557 | 20 | 268 | 4.8 | 12.9 | 0.00 | 0.00 | 0.00 | 86 | 1020.3 |
| 20260830150054 | 19 | 158 | 3.2 | 6.4 | 0.00 | 0.00 | 0.00 | 86 | 1020.6 |
| 20260830144514 | 19 | 115 | 3.2 | 11.3 | 0.00 | 0.00 | 0.00 | 85 | 1020.6 |
| 20260830143011 | 19 | 231 | 0.0 | 4.8 | 0.00 | 0.00 | 0.00 | 85 | 1020.5 |
| 20260830141507 | 18 | 121 | 1.6 | 8.0 | 0.00 | 0.00 | 0.00 | 83 | 1020.7 |
| 20260830140005 | 18 | 221 | 0.0 | 4.8 | 0.00 | 0.00 | 0.00 | 82 | 1020.9 |
| 20260830134507 | 18 | 126 | 0.0 | 6.4 | 0.00 | 0.00 | 0.00 | 82 | 1020.9 |
| 20260830133103 | 18 | 130 | 1.6 | 4.8 | 0.00 | 0.00 | 0.00 | 80 | 1021.0 |
| 20260830131614 | 17 | 168 | 1.6 | 6.4 | 0.00 | 0.00 | 0.00 | 81 | 1021.0 |
| 20260830130101 | 17 | 165 | 0.0 | 3.2 | 0.00 | 0.00 | 0.00 | 83 | 1021.1 |
| 20260830124550 | 16 | 154 | 1.6 | 4.8 | 0.00 | 0.00 | 0.00 | 86 | 1021.2 |
| 20260830123052 | 15 | 197 | 1.6 | 3.2 | 0.00 | 0.00 | 0.00 | 91 | 1021.5 |
| 20260830121543 | 14 | 197 | 0.0 | 0.0 | 0.00 | 0.00 | 0.00 | 92 | 1021.5 |
| 20260830120039 | 13 | 197 | 0.0 | 1.6 | 0.00 | 0.00 | 0.00 | 92 | 1021.7 |